EST,Max TemperatureF,Mean TemperatureF,Min TemperatureF,Max Dew PointF,MeanDew PointF,Min DewpointF,Max Humidity, Mean Humidity, Min Humidity, Max Sea Level PressureIn, Mean Sea Level PressureIn, Min Sea Level PressureIn, Max VisibilityMiles, Mean VisibilityMiles, Min VisibilityMiles, Max Wind SpeedMPH, Mean Wind SpeedMPH, Max Gust SpeedMPH,PrecipitationIn, CloudCover, Events, WindDirDegrees
2012-1-1,79,68,56,63,59,57,97,74,50,30.27,30.20,30.17,10,10,9,10,3,13,0.00,2,,122
2012-1-2,78,65,52,64,55,29,100,67,33,30.19,30.12,30.05,10,10,10,23,8,31,T,4,,297
2012-1-3,53,46,39,40,22,7,71,43,15,30.36,30.27,30.17,10,10,10,30,14,40,0.00,2,,321
2012-1-4,65,52,39,48,35,19,71,56,41,30.39,30.32,30.27,10,10,10,16,10,21,0.00,1,,331
2012-1-5,68,55,42,41,32,18,71,44,16,30.31,30.25,30.19,10,10,10,14,5,17,0.00,2,,322
2012-1-6,71,58,44,52,47,41,93,71,49,30.25,30.19,30.15,10,10,10,12,4,23,0.00,1,,277
2012-1-7,74,62,50,54,50,46,96,67,38,30.22,30.16,30.12,10,10,10,10,2,16,0.00,2,,93
2012-1-8,76,64,52,58,54,50,96,71,46,30.24,30.20,30.17,10,10,10,15,5,20,0.00,2,,83
2012-1-9,78,69,60,61,58,56,90,72,54,30.21,30.15,30.11,10,10,10,15,8,20,0.00,3,,94
2012-1-10,78,67,55,61,57,54,93,72,50,30.12,30.05,29.99,10,10,10,14,4,17,0.00,3,,135
2012-1-11,76,67,57,66,63,55,97,81,64,29.99,29.89,29.82,10,10,10,21,8,25,T,6,,208
2012-1-12,78,71,63,65,62,58,100,77,54,29.99,29.92,29.86,10,10,9,17,7,21,0.00,6,,256
2012-1-13,73,67,61,62,57,46,93,76,58,30.17,30.10,30.00,10,10,10,14,6,18,0.00,6,,312
2012-1-14,62,56,49,48,40,33,67,57,47,30.35,30.27,30.19,10,10,10,18,11,23,0.00,7,,333
2012-1-15,68,54,40,43,37,24,70,48,25,30.44,30.38,30.34,10,10,10,17,9,21,0.00,2,,344
2012-1-16,72,63,54,54,50,43,66,57,47,30.43,30.36,30.32,10,10,10,21,13,25,0.00,6,,72
2012-1-17,78,70,61,60,57,52,78,63,47,30.31,30.24,30.17,10,10,10,18,8,23,0.00,4,,149
2012-1-18,80,68,56,64,59,56,100,73,45,30.16,30.09,29.99,10,10,10,16,4,18,0.00,4,,223
2012-1-19,74,68,62,61,55,49,93,69,44,30.15,30.09,30.00,10,10,6,18,9,24,0.00,2,,343
2012-1-20,76,64,51,56,52,50,96,71,46,30.21,30.16,30.13,10,10,10,15,6,21,0.00,1,,111
2012-1-21,78,66,54,60,57,52,93,72,50,30.17,30.11,30.06,10,10,10,16,6,20,0.00,4,,164
2012-1-22,79,67,55,63,59,54,93,70,47,30.14,30.11,30.06,10,10,10,14,6,20,0.00,5,,72
2012-1-23,79,74,68,66,64,62,90,74,58,30.14,30.11,30.08,10,10,10,22,9,26,0.05,5,Rain,128
2012-1-24,80,73,66,67,65,62,93,76,58,30.19,30.14,30.10,10,10,4,18,8,51,0.29,5,Rain,130
2012-1-25,79,75,70,67,65,63,79,72,64,30.20,30.14,30.10,10,10,10,17,11,23,0.01,4,Rain,109
2012-1-26,80,75,69,67,65,64,90,76,62,30.13,30.07,30.01,10,10,10,22,11,26,0.03,3,Rain,146
2012-1-27,85,77,68,69,65,63,84,68,51,30.07,30.01,29.96,10,10,10,20,9,25,0.00,5,,219
2012-1-28,80,73,65,65,63,61,93,72,51,30.16,30.11,30.06,10,10,10,12,5,14,0.00,6,,337
2012-1-29,76,70,63,63,60,55,93,75,57,30.25,30.19,30.13,10,10,10,17,9,22,0.00,7,,351
2012-1-30,76,68,60,60,57,55,100,75,50,30.32,30.27,30.21,10,10,10,22,13,28,0.00,4,,49
2012-1-31,76,72,68,61,57,55,68,61,53,30.33,30.28,30.24,10,10,10,17,11,22,0.00,5,,75